Miscellaneous Local Product
Issued by NWS North Platte, NE

Home | Current Version | Previous Version | Text Only | Print | Product List | Glossary On
Versions: 1 2 3 4 5 6 7 8 9 10 11 12 13 14 15 16 17 18 19 20 21 22 23 24 25 26 27 28 29 30 31 32 33 34 35 36 37 38 39 40 41 42 43 44 45 46 47 48 49 50
000
AXUS43 KLBF 041410
MISLBF


WESTERN AND NORTH CENTRAL NEBRASKA HOURLY WEATHER ROUNDUP
NATIONAL WEATHER SERVICE NORTH PLATTE NE
900 AM CDT TUE AUG 04 2015

***STATIONS NOT REPORTING VARIABLES SUCH AS SKY/WEATHER OR
PRESSURE ARE PROVIDED BY THE NEBRASKA DEPARTMENT OF
ROADS...RAWS...AND APRS NETWORKS...AND ARE NOT UNDER
NATIONAL WEATHER SERVICE QUALITY CONTROL***

...OBSERVATIONS IN AND NEAR THE EASTERN PANHANDLE OF NEBRASKA...

CITY           SKY/WX    TMP DP  RH WIND       PRES   REMARKS
PINE RIDGE     PTSUNNY   69  62  78 SE28G37   29.97S
CHADRON        MOSUNNY   64  58  80 NW3       29.97R
ALLIANCE       MOSUNNY   64  59  83 E8        30.00S
SIDNEY         PTSUNNY   69  53  56 SE10      30.03F
BIG SPRINGS      N/A     66  64  95 E3          N/A
$$

...OBSERVATIONS IN NORTH CENTRAL NEBRASKA...

CITY           SKY/WX    TMP DP  RH WIND       PRES   REMARKS
THEDFORD       CLOUDY    66  61  83 E10       30.05F
AINSWORTH      MOSUNNY   68  60  76 E9        29.99F
O`NEILL        CLOUDY    65  64  98 SE6       30.02F
ORD            LGT RAIN  66  62  87 VRB3      30.03R
BROKEN BOW     CLOUDY    69  59  70 E10       30.05R
SPRINGVIEW       N/A     62  60  95 CALM        N/A
CHAMBERS         N/A     67  65  94 W3          N/A
EWING            N/A     64  62  94 CALM        N/A
$$

...OBSERVATIONS IN SOUTHWEST NEBRASKA AND FAR NORTHEAST COLORADO...

CITY           SKY/WX    TMP DP  RH WIND       PRES   REMARKS
WRAY           FAIR      70  57  63 NE7       29.99F
HOLYOKE        FAIR      68  54  60 E7        30.01S
IMPERIAL       CLOUDY    69  66  90 NE10      30.00R
OGALLALA       CLOUDY    68  66  94 E16G22    30.01R FOG
NORTH PLATTE   LGT RAIN  67  65  93 E13       30.01R
MCCOOK         CLOUDY    68  67  96 NE10      29.98R FOG
LEXINGTON      CLOUDY    67  66  96 E17       30.00F FOG
PAXTON           N/A     67  65  94 E5          N/A
BRADY            N/A     65  63  94 NE5G12      N/A
CALLAWAY         N/A     65  64  98 E13         N/A
$$

...NORTH PLATTE AREA...

CITY           SKY/WX    TMP DP  RH WIND       PRES   REMARKS
AIRPORT        LGT RAIN  67  65  93 E13       30.01R
DOWNTOWN         N/A     67  66  96 E6G15       N/A
SANDRIDGE        N/A     67  66  96 MISG        N/A
HILLCREST        N/A     66  66 100 E18G25      N/A
$$

...SOME WEATHER OBSERVATIONS FROM AROUND THE REGION...

CITY           SKY/WX    TMP DP  RH WIND       PRES   REMARKS
DENVER         PTSUNNY   68  48  48 E6        30.08R
LARAMIE        LGT RAIN  58  48  69 W9        30.18S
CHEYENNE       CLOUDY    63  48  58 VRB3      30.12R
SCOTTSBLUFF    PTSUNNY   64  55  72 CALM      30.01R
RAPID CITY     PTSUNNY   67  60  78 S5        29.98R
PIERRE         CLOUDY    68  62  81 S10       29.95R
WINNER         FAIR      67  62  84 MISG      29.93F
SIOUX FALLS    CLOUDY    66  59  78 E3        30.05R
OMAHA          LGT RAIN  67  65  93 NE8       30.03R
GRAND ISLAND   CLOUDY    68  62  81 NE9       30.04R
KANSAS CITY    PTSUNNY   77  69  76 SE7       29.98R
WICHITA        CLOUDY    76  68  76 SW7       29.97R
HAYS           PTSUNNY   75  64  69 S10       29.96R
LIBERAL        MOSUNNY   70  63  78 S6        29.98F
GOODLAND       MOSUNNY   71  64  78 S6        29.99R
$$



USA.gov is the U.S. government's official web portal to all federal, state and local government web resources and services.